Upstream stations:
Downstream station:
SHEF ID: BVLO2 Caney River above Coon Creek at
STATION TYPE:
Regulating: Stage = 13.00, Flow = 14009
PRECIP STAGE STAGE(2) RIV-FLOW BAT-LOAD
in ft ft cfs volt
Ccp-Rev Ccp-Rev Ccp-Rev Ccp-Rev Ccp-Rev
(US/Central)
03/01 00:00 0.00 4.62 10.99 1627 12.65
03/01 01:00 0.00 4.62 10.96 1627 12.65
03/01 02:00 0.00 4.62 11.05 1627 12.57
03/01 03:00 0.00 4.62 11.00 1627 12.57
03/01 04:00 0.00 4.63 11.03 1642 12.57
03/01 05:00 0.00 4.62 11.03 1627 12.57
03/01 06:00 0.00 4.63 11.12 1642 12.57
03/01 07:00 0.00 4.62 11.06 1627 12.49
03/01 08:00 0.00 4.62 11.17 1627 12.49
03/01 09:00 0.00 4.62 11.47 1627 12.97
03/01 10:00 0.00 4.61 11.53 1612 14.24
03/01 11:00 0.00 4.62 11.29 1627 14.24
03/01 12:00 0.00 4.61 11.23 1612 13.84
03/01 13:00 0.00 4.61 11.14 1612 13.84
03/01 14:00 0.00 4.61 11.09 1612 13.84
03/01 15:00 0.00 4.61 11.07 1612 13.84
03/01 16:00 0.00 4.61 11.08 1612 13.29
03/01 17:00 0.00 4.61 11.05 1612 13.21
03/01 18:00 0.00 4.61 10.69 1612 13.13
03/01 19:00 0.00 4.61 10.70 1612 12.73
03/01 20:00 0.00 4.62 10.79 1627 12.73
03/01 21:00 0.00 4.61 10.76 1612 12.65
03/01 22:00 ---- ---- ---- ---- ----
03/01 23:00 ---- ---- ---- ---- ----